AUA62 LOWW-EDDB

Flight info

Callsign AUA62
Flight time 0h 52m
Altitude 30000
Route LANUX DCT VLM DCT BEFRE T204 NUKRO NUKRO1R
Aircraft A320/M-SDE3FGHIRWY/LB1

Departure

Time 2026-05-05 18:45
Airport Vienna International Airport (LOWW)

Arrival

Time 2026-05-05 19:37
Airport Berlin Brandenburg Airport (EDDB)
Time Latitude Longitude Altitude Speed Heading
2026-05-05 18:26 48.11897 16.56768 618 ft 0 kts 206°
2026-05-05 18:27 48.11898 16.56768 618 ft 0 kts 206°
2026-05-05 18:37 48.11902 16.56771 610 ft 2 kts 206°
2026-05-05 18:37 48.11920 16.56783 613 ft 3 kts 202°
2026-05-05 18:37 48.11939 16.56794 620 ft 3 kts 192°
2026-05-05 18:37 48.11958 16.56797 621 ft 3 kts 165°
2026-05-05 18:38 48.11970 16.56789 625 ft 1 kts 118°
2026-05-05 18:38 48.11971 16.56785 625 ft 3 kts 116°
2026-05-05 18:41 48.11971 16.56786 609 ft 1 kts 116°
2026-05-05 18:41 48.11943 16.56872 613 ft 16 kts 116°
2026-05-05 18:41 48.11890 16.57036 618 ft 18 kts 116°
2026-05-05 18:41 48.11851 16.57185 609 ft 8 kts 85°
2026-05-05 18:42 48.11840 16.57262 622 ft 8 kts 109°
2026-05-05 18:42 48.11867 16.57316 617 ft 6 kts 14°
2026-05-05 18:42 48.11914 16.57300 618 ft 9 kts 343°
2026-05-05 18:42 48.11973 16.57303 616 ft 9 kts 31°
2026-05-05 18:43 48.12006 16.57416 621 ft 12 kts 74°
2026-05-05 18:43 48.12004 16.57538 623 ft 12 kts 104°
2026-05-05 18:43 48.11981 16.57672 609 ft 14 kts 105°
2026-05-05 18:43 48.11940 16.57812 619 ft 15 kts 133°
2026-05-05 18:44 48.11847 16.57873 611 ft 16 kts 163°
2026-05-05 18:44 48.11586 16.57983 615 ft 73 kts 164°
2026-05-05 18:44 48.10895 16.58275 621 ft 131 kts 164°
2026-05-05 18:44 48.09908 16.58689 919 ft 151 kts 166°
2026-05-05 18:45 48.08891 16.59124 1605 ft 153 kts 166°
2026-05-05 18:45 48.07836 16.59574 2128 ft 168 kts 169°
2026-05-05 18:45 48.06639 16.60088 2481 ft 188 kts 167°
2026-05-05 18:45 48.05504 16.61136 3142 ft 202 kts 143°
2026-05-05 18:46 48.04712 16.62978 3828 ft 222 kts 115°
2026-05-05 18:46 48.04542 16.65335 4543 ft 238 kts 85°
2026-05-05 18:46 48.05167 16.67661 5259 ft 248 kts 53°
2026-05-05 18:46 48.06440 16.69455 5890 ft 260 kts 38°
2026-05-05 18:47 48.07990 16.71074 6283 ft 284 kts 24°
2026-05-05 18:47 48.09954 16.71758 6744 ft 298 kts 355°
2026-05-05 18:47 48.11934 16.70973 7491 ft 295 kts 326°
2026-05-05 18:47 48.13516 16.69096 8343 ft 294 kts 313°
2026-05-05 18:48 48.15020 16.67012 9203 ft 297 kts 312°
2026-05-05 18:48 48.16529 16.64879 10053 ft 299 kts 313°
2026-05-05 18:48 48.18092 16.62657 10391 ft 322 kts 313°
2026-05-05 18:48 48.19781 16.60255 10632 ft 345 kts 313°
2026-05-05 18:49 48.21579 16.57712 11084 ft 359 kts 314°
2026-05-05 18:49 48.23414 16.55133 11804 ft 364 kts 314°
2026-05-05 18:49 48.25277 16.52523 12509 ft 369 kts 314°
2026-05-05 18:49 48.27167 16.49879 13230 ft 373 kts 314°
2026-05-05 18:50 48.29065 16.47227 14003 ft 373 kts 315°
2026-05-05 18:50 48.30975 16.44554 14669 ft 376 kts 313°
2026-05-05 18:50 48.32872 16.41885 15289 ft 380 kts 313°
2026-05-05 18:50 48.34809 16.39144 15915 ft 384 kts 313°
2026-05-05 18:51 48.36761 16.36374 16496 ft 388 kts 313°
2026-05-05 18:51 48.38740 16.33568 17091 ft 392 kts 313°
2026-05-05 18:51 48.40734 16.30738 17722 ft 396 kts 314°
2026-05-05 18:51 48.42745 16.27880 18323 ft 399 kts 313°
2026-05-05 18:52 48.44775 16.24992 18881 ft 402 kts 314°
2026-05-05 18:52 48.46815 16.22095 19443 ft 405 kts 313°
2026-05-05 18:52 48.48870 16.19171 20000 ft 408 kts 314°
2026-05-05 18:52 48.50938 16.16225 20578 ft 411 kts 314°
2026-05-05 18:53 48.53028 16.13248 21122 ft 413 kts 314°
2026-05-05 18:53 48.55128 16.10251 21631 ft 417 kts 314°
2026-05-05 18:53 48.57236 16.07225 22138 ft 420 kts 314°
2026-05-05 18:53 48.59357 16.04172 22634 ft 422 kts 314°
2026-05-05 18:54 48.61469 16.01138 23119 ft 425 kts 314°
2026-05-05 18:54 48.63625 15.98044 23535 ft 428 kts 314°
2026-05-05 18:54 48.65790 15.94932 23935 ft 430 kts 313°
2026-05-05 18:54 48.67963 15.91806 24331 ft 432 kts 314°
2026-05-05 18:55 48.70150 15.88660 24726 ft 434 kts 314°
2026-05-05 18:55 48.72339 15.85505 25121 ft 436 kts 314°
2026-05-05 18:55 48.74539 15.82326 25446 ft 439 kts 314°
2026-05-05 18:55 48.76756 15.79121 25815 ft 441 kts 314°
2026-05-05 18:56 48.78973 15.75912 26078 ft 441 kts 314°
2026-05-05 18:56 48.81181 15.72708 26289 ft 436 kts 314°
2026-05-05 18:56 48.83390 15.69493 26482 ft 443 kts 313°
2026-05-05 18:56 48.85621 15.66237 26786 ft 446 kts 313°
2026-05-05 18:57 48.87958 15.63105 27111 ft 450 kts 320°
2026-05-05 18:57 48.90605 15.60500 27434 ft 455 kts 329°
2026-05-05 18:57 48.93494 15.58470 27793 ft 458 kts 334°
2026-05-05 18:57 48.96426 15.56547 28124 ft 459 kts 334°
2026-05-05 18:58 48.99330 15.54633 28406 ft 461 kts 334°
2026-05-05 18:58 49.02279 15.52676 28664 ft 464 kts 334°
2026-05-05 18:58 49.05247 15.50701 28939 ft 466 kts 334°
2026-05-05 18:58 49.08221 15.48718 29204 ft 467 kts 333°
2026-05-05 18:59 49.11208 15.46721 29469 ft 469 kts 333°
2026-05-05 18:59 49.14202 15.44720 29714 ft 468 kts 333°
2026-05-05 18:59 49.20095 15.40785 29740 ft 456 kts 333°
2026-05-05 19:00 49.25894 15.36900 29750 ft 455 kts 333°
2026-05-05 19:00 49.30712 15.33669 29753 ft 454 kts 333°
2026-05-05 19:01 49.36504 15.29758 29757 ft 455 kts 334°
2026-05-05 19:01 49.42311 15.25820 29752 ft 456 kts 334°
2026-05-05 19:02 49.48112 15.21889 29751 ft 456 kts 334°
2026-05-05 19:02 49.53917 15.17954 29753 ft 455 kts 334°
2026-05-05 19:03 49.59709 15.14011 29746 ft 455 kts 334°
2026-05-05 19:03 49.65518 15.10047 29747 ft 455 kts 334°
2026-05-05 19:04 49.71376 15.06481 29756 ft 457 kts 343°
2026-05-05 19:04 49.77647 15.04575 29756 ft 459 kts 347°
2026-05-05 19:05 49.83949 15.02743 29745 ft 460 kts 347°
2026-05-05 19:05 49.90260 15.00905 29754 ft 461 kts 347°
2026-05-05 19:06 49.96575 14.99052 29748 ft 462 kts 347°
2026-05-05 19:06 50.02864 14.97191 29746 ft 463 kts 347°
2026-05-05 19:07 50.09208 14.95321 29751 ft 463 kts 347°
2026-05-05 19:07 50.15538 14.93458 29746 ft 463 kts 347°
2026-05-05 19:08 50.21843 14.91597 29745 ft 463 kts 347°
2026-05-05 19:08 50.28181 14.89720 29743 ft 463 kts 347°
2026-05-05 19:09 50.34517 14.87826 29755 ft 463 kts 346°
2026-05-05 19:09 50.40858 14.85925 29744 ft 464 kts 346°
2026-05-05 19:10 50.47209 14.84028 29740 ft 464 kts 346°
2026-05-05 19:10 50.53557 14.82122 29749 ft 464 kts 346°
2026-05-05 19:11 50.59911 14.80197 29756 ft 464 kts 346°
2026-05-05 19:11 50.66220 14.78290 29765 ft 464 kts 346°
2026-05-05 19:12 50.72568 14.76367 29772 ft 464 kts 346°
2026-05-05 19:12 50.78918 14.74444 29781 ft 463 kts 346°
2026-05-05 19:13 50.85249 14.72518 29782 ft 463 kts 346°
2026-05-05 19:13 50.91583 14.70577 29798 ft 463 kts 346°
2026-05-05 19:14 50.97894 14.68470 29792 ft 462 kts 343°
2026-05-05 19:14 51.04084 14.65938 29786 ft 461 kts 342°
2026-05-05 19:15 51.10290 14.63295 29803 ft 462 kts 342°
2026-05-05 19:15 51.16515 14.60736 29822 ft 461 kts 342°
2026-05-05 19:16 51.22751 14.58239 29787 ft 462 kts 343°
2026-05-05 19:16 51.28970 14.55736 28949 ft 458 kts 342°
2026-05-05 19:17 51.32067 14.54472 27870 ft 460 kts 342°
2026-05-05 19:17 51.35175 14.53199 26925 ft 461 kts 342°
2026-05-05 19:17 51.38288 14.52050 26223 ft 458 kts 347°
2026-05-05 19:17 51.41447 14.51480 25569 ft 455 kts 352°
2026-05-05 19:18 51.44566 14.50831 24883 ft 448 kts 343°
2026-05-05 19:18 51.47424 14.49162 24246 ft 438 kts 328°
2026-05-05 19:18 51.49886 14.46419 23618 ft 427 kts 313°
2026-05-05 19:18 51.51832 14.42895 22909 ft 420 kts 304°
2026-05-05 19:19 51.53644 14.39236 22197 ft 417 kts 305°
2026-05-05 19:19 51.55446 14.35596 21550 ft 414 kts 305°
2026-05-05 19:19 51.57235 14.31984 20945 ft 411 kts 305°
2026-05-05 19:19 51.59010 14.28401 20345 ft 408 kts 305°
2026-05-05 19:20 51.60775 14.24841 19781 ft 405 kts 306°
2026-05-05 19:20 51.62524 14.21310 19235 ft 402 kts 306°
2026-05-05 19:20 51.64263 14.17784 18698 ft 400 kts 306°
2026-05-05 19:20 51.65984 14.14292 18177 ft 397 kts 306°
2026-05-05 19:21 51.67694 14.10815 17727 ft 395 kts 306°
2026-05-05 19:21 51.69401 14.07340 17321 ft 393 kts 306°
2026-05-05 19:21 51.71092 14.03891 16927 ft 391 kts 306°
2026-05-05 19:21 51.72774 14.00459 16533 ft 389 kts 306°
2026-05-05 19:22 51.74446 13.97051 16154 ft 387 kts 306°
2026-05-05 19:22 51.76109 13.93652 15776 ft 384 kts 306°
2026-05-05 19:22 51.77758 13.90270 15397 ft 382 kts 306°
2026-05-05 19:22 51.79379 13.86942 15034 ft 380 kts 306°
2026-05-05 19:23 51.81009 13.83598 14667 ft 378 kts 306°
2026-05-05 19:23 51.82639 13.80250 14405 ft 377 kts 306°
2026-05-05 19:23 51.84259 13.76921 14161 ft 376 kts 306°
2026-05-05 19:23 51.85874 13.73590 13937 ft 374 kts 306°
2026-05-05 19:24 51.87473 13.70288 13706 ft 373 kts 306°
2026-05-05 19:24 51.89070 13.66991 13452 ft 371 kts 306°
2026-05-05 19:24 51.90659 13.63701 13145 ft 370 kts 306°
2026-05-05 19:24 51.92244 13.60418 12752 ft 368 kts 306°
2026-05-05 19:25 51.93811 13.57167 12252 ft 365 kts 306°
2026-05-05 19:25 51.95369 13.53928 11736 ft 362 kts 306°
2026-05-05 19:25 51.96894 13.50756 11248 ft 360 kts 306°
2026-05-05 19:25 51.98424 13.47572 10752 ft 357 kts 306°
2026-05-05 19:26 51.99949 13.44398 10266 ft 354 kts 306°
2026-05-05 19:26 52.01456 13.41253 9784 ft 350 kts 306°
2026-05-05 19:26 52.02939 13.38150 9264 ft 344 kts 306°
2026-05-05 19:26 52.04395 13.35095 8747 ft 340 kts 306°
2026-05-05 19:27 52.05836 13.32074 8234 ft 335 kts 307°
2026-05-05 19:27 52.07253 13.29101 7741 ft 331 kts 307°
2026-05-05 19:27 52.08651 13.26171 7239 ft 323 kts 307°
2026-05-05 19:27 52.09982 13.23385 6749 ft 307 kts 307°
2026-05-05 19:28 52.11263 13.20694 6269 ft 293 kts 307°
2026-05-05 19:28 52.12477 13.18118 5763 ft 282 kts 307°
2026-05-05 19:28 52.13645 13.15614 5257 ft 272 kts 307°
2026-05-05 19:28 52.14762 13.13189 4758 ft 264 kts 307°
2026-05-05 19:29 52.15839 13.10819 4245 ft 257 kts 308°
2026-05-05 19:29 52.17082 13.08908 4010 ft 235 kts 330°
2026-05-05 19:29 52.18447 13.07695 3986 ft 213 kts 334°
2026-05-05 19:29 52.19741 13.06622 3992 ft 207 kts 335°
2026-05-05 19:30 52.21008 13.05567 3998 ft 206 kts 335°
2026-05-05 19:30 52.22320 13.04659 3987 ft 202 kts 354°
2026-05-05 19:30 52.23670 13.04962 4002 ft 197 kts 26°
2026-05-05 19:30 52.24870 13.06059 4003 ft 198 kts 34°
2026-05-05 19:31 52.26027 13.07289 4003 ft 199 kts 36°
2026-05-05 19:31 52.27089 13.08707 3990 ft 196 kts 55°
2026-05-05 19:31 52.27695 13.10668 4004 ft 194 kts 70°
2026-05-05 19:31 52.28194 13.12745 4000 ft 198 kts 69°
2026-05-05 19:32 52.28700 13.14849 4003 ft 199 kts 69°
2026-05-05 19:32 52.29209 13.16956 4003 ft 199 kts 69°
2026-05-05 19:32 52.29717 13.19063 3876 ft 199 kts 69°
2026-05-05 19:32 52.30222 13.21160 3656 ft 198 kts 69°
2026-05-05 19:33 52.30718 13.23217 3412 ft 196 kts 69°
2026-05-05 19:33 52.31212 13.25273 3159 ft 192 kts 69°
2026-05-05 19:33 52.31696 13.27285 2905 ft 188 kts 69°
2026-05-05 19:33 52.32165 13.29238 2688 ft 182 kts 68°
2026-05-05 19:34 52.32621 13.31140 2416 ft 175 kts 69°
2026-05-05 19:34 52.33049 13.32925 2171 ft 162 kts 68°
2026-05-05 19:34 52.33432 13.34527 1977 ft 143 kts 68°
2026-05-05 19:35 52.34116 13.37395 1613 ft 131 kts 68°
2026-05-05 19:35 52.34447 13.38779 1431 ft 131 kts 68°
2026-05-05 19:35 52.34775 13.40140 1264 ft 130 kts 68°
2026-05-05 19:35 52.35108 13.41533 1063 ft 130 kts 67°
2026-05-05 19:36 52.35439 13.42917 883 ft 130 kts 66°
2026-05-05 19:36 52.35771 13.44312 683 ft 132 kts 68°
2026-05-05 19:36 52.36108 13.45739 580 ft 147 kts 65°
2026-05-05 19:36 52.36459 13.47242 368 ft 133 kts 67°
2026-05-05 19:37 52.36788 13.48601 195 ft 126 kts 66°
2026-05-05 19:37 52.37070 13.49770 159 ft 89 kts 69°
2026-05-05 19:37 52.37244 13.50504 157 ft 58 kts 68°
2026-05-05 19:37 52.37303 13.50927 158 ft 23 kts 97°
2026-05-05 19:38 52.37287 13.51187 162 ft 21 kts 96°
2026-05-05 19:38 52.37284 13.51220 162 ft 0 kts 102°
2026-05-05 19:38 52.37282 13.51236 162 ft 7 kts 98°
2026-05-05 19:38 52.37218 13.51327 160 ft 16 kts 196°
2026-05-05 19:39 52.37169 13.51177 159 ft 15 kts 249°
2026-05-05 19:39 52.37133 13.51028 159 ft 15 kts 250°
2026-05-05 19:39 52.37075 13.50787 159 ft 27 kts 249°
2026-05-05 19:39 52.37032 13.50604 157 ft 15 kts 250°
2026-05-05 19:40 52.36995 13.50444 155 ft 15 kts 248°
2026-05-05 19:40 52.36957 13.50288 154 ft 15 kts 250°
2026-05-05 19:40 52.36924 13.50152 152 ft 10 kts 242°
2026-05-05 19:40 52.36881 13.50122 150 ft 11 kts 179°
2026-05-05 19:41 52.36861 13.50134 150 ft 7 kts 158°
2026-05-05 19:41 52.36761 13.50183 152 ft 13 kts 187°
2026-05-05 19:41 52.36671 13.50175 151 ft 13 kts 159°
2026-05-05 19:41 52.36618 13.50209 151 ft 12 kts 159°
2026-05-05 19:42 52.36544 13.50255 151 ft 11 kts 159°
2026-05-05 19:42 52.36498 13.50319 152 ft 7 kts 88°
2026-05-05 19:42 52.36515 13.50386 153 ft 6 kts 69°
2026-05-05 19:42 52.36529 13.50443 154 ft 6 kts 68°
2026-05-05 19:43 52.36540 13.50492 155 ft 3 kts 68°
2026-05-05 19:43 52.36541 13.50496 155 ft 1 kts 68°